Showing default

GONETS M 16 (M26), 44907

Orbit data source: Space-Track

GONETS M 16 (M26), 44907 is a payload satellite owned by Gonets (CIS) in LEO that was launched on Thu, 26 Dec 2019 UTC via an ROKOT launch vehicle from the Plesetsk Missile And Space Complex (PKMTR). Payload-class satellites include a variety of spacecraft equipped with specific instruments for various scientific and technological missions. These include communications satellites like Starlink; space stations such as the ISS; scientific satellites like the Hubble; Earth observation satellites from companies like Planet Labs, Umbra, and HawkEye 360; GPS; miniature CubeSats for education and research; and military/defense satellites.

Loading next visibility...
Identifier
44907, 2019-096C
Orbit
LEO
Country
Flag of CISCIS
Related business
Manufacturer
Resehetnev ISS
Mission
Operational Commercial Communications
Bus & Motor
STRELA-3M, Unknown motor
Mass
225 kg wet, 225 kg dry
Launch date (UTC)
2019-12-26 (6 years ago)
Launch vehicle
ROKOT
Launch site
Plesetsk Missile And Space Complex (PKMTR)
Object type
Payload
Rocket body
Debris
Shape & HBR
Cyl + 1 Ant, 3.5 m
Radar Cross Section
1.798 m², Large (>1 m²)

Expand to show TLE details & history
Last TLE update: 7 hours ago

TLE from 7 hours ago
0 GONETS M 16 (M26)
1 44907U 19096C   26036.49136581 -.00000044  00000-0 -38858-3 0  9998
2 44907  82.5233 165.7291 0011994 143.5639 216.6259 12.42886661277275
Epoch: 2026-02-05T11:47Z
TLE epoch observation values (Epoch: 2026-02-05T11:47:34.005Z)
Latitude
-0.00007°
Longitude
-146.80543°
Altitude
1,504.674 km
Speed
7.109 km/s
True Right ascension
11h 02m 54s
True Declination
0° 00' 00"
Sunlit
Object was in full shadow at epoch
Visualization orbit readout
Latitude
Unknown
Longitude
Unknown
Altitude
Unknown
Speed
Unknown
Apparent Right ascension
Unknown
Apparent Declination
Unknown
Sunlit
N/A
Visualization observer readout
Local Sidereal Time
20:51:25
Azimuth
Unknown
Elevation
Unknown
Doppler factor
Unknown
Orbital elements
Apogee altitude
1,501.18 km
Perigee altitude
1,482.301 km
Semi-major axis
7,869.877 km
Eccentricity
0.0012
Inclination
82.5233°
RAAN
165.7291°
Arg. of periapsis
143.5639°
True anomaly
216.544°
Mean anomaly
216.6259°
Eccentric anomaly
216.58494°
Mean motion
3.10879 °/min
Orbital period
115.8 mins
BSTAR
-0.00038858
Loading maneuver chart data...
Computing Atmospheric mass density...
Loading historical data...
Loading historical data...
Loading historical data...
Loading historical data...
Loading historical data...
Loading historical data...
Loading historical data...
Other satellites on launch #96 in the year 2019 (2019-12-26 UTC)

Documentation

Showing up to 5 results
|